Location: Catstown
(52.4386°N, 7.2633°W)
Time: 22:50:04
(UTC+00:00)

SPOT 3 Rocket - Pass Details

Date: 18 September 2020
Orbit: 779 x 794 km, 98.8° (Epoch: 20 October)

Event Time Altitude Azimuth Distance (km) Brightness Sun altitude
Exits shadow 20:03:38 17° 136° (SE) 1,871 5.0 -13.8°
Maximum altitude 20:07:22 51° 67° (ENE) 985 3.8 -14.4°
Drops below altitude 10° 20:12:21 10° 352° (N) 2,348 6.4 -15.1°
Sets 20:14:44 0° 348° (NNW) 3,281 7.3 -15.4°
